Location: Newark
(48.3453°N, 0.5589°E)
Time: 04:33:01
(UTC+00:00)

A-11 Canister half - Pass Details

Date: 15 December 2019
Orbit: 1517 x 1683 km, 47.2° (Epoch: 24 January)

Event Time Altitude Azimuth Distance (km) Brightness Sun altitude
Rises 18:28:18 0° 288° (WNW) 4,885 12.6 -22.9°
Reaches altitude 10° 18:32:40 10° 272° (W) 3,916 12.2 -23.6°
Maximum altitude 18:38:55 19° 233° (SW) 3,278 11.4 -24.6°
Drops below altitude 10° 18:45:14 10° 194° (SSW) 3,937 11.4 -25.7°
Sets 18:49:41 0° 177° (S) 4,920 11.7 -26.4°
